Location: Skymont Scout Reservation
(35.4344°N, 85.8742°W)
Time: 11:33:40
(UTC-05:00)

ISS - All Passes

Search period start: 20 April 2018 00:00
Search period end: 30 April 2018 00:00
Orbit: 403 x 406 km, 51.6° (Epoch: 20 April)

Date Brightness Start Highest point End Pass type
(mag) Time Alt. Az. Time Alt. Az. Time Alt. Az.
20 Apr - 09:12:06 10° SW 09:15:20 62° SE 09:18:33 10° NE daylight
20 Apr - 10:50:02 10° WNW 10:52:04 15° NNW 10:54:08 10° N daylight
20 Apr - 15:42:46 10° NNW 15:45:22 21° NNE 15:47:59 10° E daylight
20 Apr - 17:18:53 10° WNW 17:21:55 35° SW 17:24:56 10° SSE daylight
21 Apr - 08:20:21 10° SSW 08:23:11 28° SE 08:26:02 10° ENE daylight
21 Apr - 09:56:53 10° W 09:59:38 24° NNW 10:02:24 10° NNE daylight
21 Apr - 14:51:09 10° N 14:52:55 14° NNE 14:54:40 10° ENE daylight
21 Apr - 16:26:28 10° NW 16:29:45 79° SW 16:33:01 10° SE daylight
22 Apr - 07:29:24 10° SSE 07:31:07 14° SE 07:32:50 10° E daylight
22 Apr - 09:04:08 10° WSW 09:07:16 45° NW 09:10:27 10° NE daylight
22 Apr - 15:34:18 10° NW 15:37:29 47° NE 15:40:40 10° ESE daylight
22 Apr - 17:12:02 10° W 17:13:38 13° SW 17:15:14 10° SSW daylight
23 Apr - 08:11:45 10° SW 08:15:00 84° SE 08:18:17 10° NE daylight
23 Apr - 09:50:12 10° WNW 09:51:52 13° NNW 09:53:32 10° N daylight
23 Apr - 14:42:19 10° NNW 14:45:07 25° NE 14:47:55 10° E daylight
23 Apr - 16:18:44 10° WNW 16:21:33 27° SW 16:24:22 10° S daylight
24 Apr - 07:19:47 10° SSW 07:22:48 36° SE 07:25:51 10° ENE daylight
24 Apr - 08:56:49 10° W 08:59:21 20° NNW 09:01:54 10° NNE daylight
24 Apr - 13:50:32 10° NNW 13:52:39 16° NNE 13:54:46 10° ENE daylight
24 Apr - 15:26:08 10° NW 15:29:22 59° SW 15:32:36 10° SE daylight
25 Apr - 06:28:25 10° S 06:30:40 17° SE 06:32:56 10° E daylight
25 Apr - 08:03:54 10° WSW 08:06:56 35° NW 08:09:59 10° NNE daylight
25 Apr - 12:59:22 10° N 13:00:04 10° NNE 13:00:46 10° NE daylight
25 Apr - 14:33:51 10° NW 14:37:06 62° NE 14:40:21 10° ESE daylight
26 Apr - 07:11:20 10° SW 07:14:35 74° NW 07:17:51 10° NE daylight
26 Apr - 08:50:22 10° NW 08:51:33 11° NNW 08:52:43 10° N daylight
26 Apr - 13:41:45 10° NNW 13:44:44 31° NE 13:47:42 10° E daylight
26 Apr - 15:18:32 10° W 15:21:04 21° SW 15:23:35 10° S daylight
27 Apr - 06:19:10 10° SSW 06:22:19 48° SE 06:25:29 10° ENE daylight
27 Apr - 07:56:41 10° WNW 07:58:58 17° NNW 08:01:16 10° NNE daylight
27 Apr - 12:49:52 10° NNW 12:52:15 18° NNE 12:54:39 10° ENE daylight
27 Apr - 14:25:44 10° WNW 14:28:53 44° SW 14:32:00 10° SSE daylight
28 Apr - 05:27:30 10° S 05:30:07 22° SE 05:32:44 10° ENE visible
28 Apr - 07:03:35 10° W 07:06:28 29° NW 07:09:23 10° NNE daylight
28 Apr - 11:58:18 10° N 11:59:41 12° NNE 12:01:03 10° NE daylight
28 Apr - 13:33:19 10° NW 13:36:36 81° NE 13:39:52 10° SE daylight
29 Apr - 04:37:07 10° SE 04:37:59 11° SE 04:38:50 10° ESE visible
29 Apr - 06:10:51 10° WSW 06:14:03 56° NW 06:17:17 10° NE daylight
29 Apr - 12:41:07 10° NNW 12:44:14 38° NE 12:47:19 10° ESE daylight
29 Apr - 14:18:20 10° W 14:20:27 16° SW 14:22:34 10° S daylight
